User: anonymous   Login
Location: Rodanthe
(35.5920°N, 75.4670°W)
Time: 16:32:19
(UTC-04:00)
Language:

ISS - Orbit

View from above orbital plane
View from above orbital plane
View from above satellite
View from above satellite

Ground track
Ground track

The orbit data is extracted from the following two-line orbital elements,

1 25544U 98067A   18263.50860944  .00016717  00000-0  10270-3 0  9014
2 25544  51.6375 263.6853 0004319 176.5026 183.6158 15.53850188 13332
Epoch (UTC): 20 September 2018 12:12:23
Eccentricity: 0.0004319
inclination: 51.6375°
perigee height: 402 km
apogee height: 408 km
right ascension of ascending node: 263.6853°
argument of perigee: 176.5026°
revolutions per day: 15.53850188
mean anomaly at epoch: 183.6158°
orbit number at epoch: 1333

The dashed part of the orbit path shows where the satellite is in the earth's shadow,  

DLR